Location: Newark
(6.1731°S, 35.7419°E)
Time: 09:04:41
(UTC+00:00)

Explorer 11/Cluster Stage 4 - All Passes

Search period start: 28 February 2020 00:00
Search period end: 09 March 2020 00:00
Orbit: 467 x 1259 km, 28.8° (Epoch: 26 February)

Date Brightness Start Highest point End Pass type
(mag) Time Alt. Az. Time Alt. Az. Time Alt. Az.
28 Feb - 04:10:51 10° NNW 04:13:33 19° NNE 04:16:18 10° E daylight
28 Feb - 05:58:04 10° WNW 06:01:38 46° SSW 06:05:42 10° SE daylight
28 Feb - 07:48:57 10° SW 07:50:40 12° SSW 07:52:28 10° S daylight
28 Feb - 13:16:08 10° SSW 13:21:50 24° SSE 13:28:07 10° ESE daylight
28 Feb - 15:03:49 10° SW 15:11:37 66° SSE 15:19:49 10° ENE daylight
28 Feb - 16:53:25 10° W 17:01:08 44° NNW 17:08:37 10° NE visible
28 Feb - 18:47:27 10° NW 18:50:41 13° NNW 18:53:49 10° N visible
29 Feb - 03:59:54 10° NNW 04:02:58 26° NNE 04:06:05 10° E daylight
29 Feb - 05:47:45 10° W 05:51:07 34° SSW 05:54:50 10° SE daylight
29 Feb - 11:20:41 10° SSE 11:21:00 10° SSE 11:21:19 10° SSE daylight
29 Feb - 13:05:17 10° SSW 13:11:06 27° SSE 13:17:35 10° E daylight
29 Feb - 14:53:00 10° SW 15:00:42 76° SSE 15:09:00 10° ENE daylight
29 Feb - 16:42:49 10° W 16:50:13 38° NNW 16:57:33 10° NNE visible
29 Feb - 18:38:13 10° NW 18:39:58 11° NNW 18:41:41 10° NNW visible
01 Mar - 03:49:01 10° NW 03:52:26 35° NNE 03:55:46 10° E daylight
01 Mar - 05:37:31 10° W 05:40:36 26° SSW 05:43:56 10° SSE daylight
01 Mar - 11:09:25 10° S 11:10:28 10° SSE 11:11:32 10° SSE daylight
01 Mar - 12:54:27 10° SSW 13:00:20 30° SSE 13:07:01 10° E daylight
01 Mar - 14:42:14 10° WSW 14:49:48 87° SSE 14:58:07 10° ENE daylight
01 Mar - 16:32:20 10° W 16:39:20 32° NNW 16:46:24 10° NNE visible
02 Mar - 03:38:12 10° NW 03:41:53 49° NNE 03:45:23 10° ESE daylight
02 Mar - 05:27:22 10° WSW 05:30:06 20° SSW 05:32:57 10° SSE daylight
02 Mar - 10:58:23 10° S 10:59:55 11° SSE 11:01:31 10° SE daylight
02 Mar - 12:43:39 10° SW 12:49:33 33° SSE 12:56:23 10° E daylight
02 Mar - 14:31:32 10° WSW 14:38:54 82° NNW 14:47:10 10° ENE daylight
02 Mar - 16:21:56 10° W 16:28:29 28° NNW 16:35:11 10° NNE visible
03 Mar - 01:42:01 10° NNE 01:42:51 10° NNE 01:43:39 10° NE visible
03 Mar - 03:27:28 10° NW 03:31:20 70° NNE 03:34:55 10° ESE daylight
03 Mar - 05:17:21 10° WSW 05:19:36 15° SSW 05:21:54 10° SSE daylight
03 Mar - 10:47:24 10° S 10:49:21 12° SSE 10:51:26 10° SE daylight
03 Mar - 12:32:54 10° SW 12:38:46 38° SSE 12:45:43 10° E daylight
03 Mar - 14:20:54 10° WSW 14:28:01 70° NNW 14:36:10 10° NE daylight
03 Mar - 16:11:39 10° WNW 16:17:40 23° NNW 16:23:53 10° NNE visible
04 Mar - 01:29:48 10° N 01:32:19 15° NNE 01:34:38 10° ENE visible
04 Mar - 03:16:45 10° WNW 03:20:47 85° SSW 03:24:25 10° ESE visible
04 Mar - 05:07:33 10° SW 05:09:06 12° SSW 05:10:39 10° S daylight
04 Mar - 10:36:29 10° S 10:38:47 12° SSE 10:41:16 10° SE daylight
04 Mar - 12:22:10 10° SW 12:27:58 43° SSE 12:34:58 10° E daylight
04 Mar - 14:10:19 10° WSW 14:17:09 59° NNW 14:25:05 10° NE daylight
04 Mar - 16:01:32 10° WNW 16:06:52 20° NNW 16:12:28 10° NNE visible
05 Mar - 01:18:18 10° NNW 01:21:47 20° NNE 01:24:52 10° ENE visible
05 Mar - 03:06:05 10° WNW 03:10:13 62° SSW 03:13:52 10° SE visible
05 Mar - 10:25:35 10° S 10:28:12 14° SSE 10:31:03 10° SE daylight
05 Mar - 12:11:29 10° SW 12:17:11 50° SSE 12:24:12 10° ENE daylight
05 Mar - 13:59:49 10° WSW 14:06:20 50° NNW 14:13:58 10° NE daylight
05 Mar - 15:51:36 10° WNW 15:56:08 16° NNW 16:00:53 10° N daylight
06 Mar - 01:07:00 10° NNW 01:11:15 26° NNE 01:14:51 10° E visible
06 Mar - 02:55:28 10° WNW 02:59:38 47° SSW 03:03:16 10° SE visible
06 Mar - 10:14:43 10° S 10:17:35 15° SSE 10:20:47 10° ESE daylight
06 Mar - 12:00:50 10° SW 12:06:25 58° SSE 12:13:22 10° ENE daylight
06 Mar - 13:49:24 10° W 13:55:32 41° NNW 14:02:45 10° NE daylight
06 Mar - 15:41:58 10° NW 15:45:26 13° NNW 15:49:03 10° N daylight
07 Mar - 00:55:49 10° NW 01:00:41 35° NNE 01:04:41 10° E visible
07 Mar - 02:44:53 10° W 02:49:03 36° SSW 02:52:39 10° SE visible
07 Mar - 10:03:53 10° SSW 10:06:58 17° SSE 10:10:28 10° ESE daylight
07 Mar - 11:50:14 10° SW 11:55:39 69° SSE 12:02:29 10° ENE daylight
07 Mar - 13:39:04 10° W 13:44:46 34° NNW 13:51:30 10° NE daylight
07 Mar - 15:33:05 10° NW 15:34:47 11° NNW 15:36:30 10° N daylight
07 Mar - 22:58:28 10° N 23:00:49 12° NNE 23:03:00 10° NE night (unlit)
08 Mar - 00:44:42 10° NW 00:50:05 46° NNE 00:54:25 10° ESE visible
08 Mar - 02:34:20 10° W 02:38:26 30° SSW 02:41:58 10° SSE visible
08 Mar - 09:53:05 10° SSW 09:56:21 19° SSE 10:00:05 10° ESE daylight
08 Mar - 11:39:40 10° WSW 11:44:54 83° SSE 11:51:34 10° ENE daylight
08 Mar - 13:28:51 10° W 13:34:04 28° NNW 13:40:09 10° NNE daylight
08 Mar - 22:46:24 10° NNW 22:50:15 16° NNE 22:53:40 10° ENE night (unlit)
